Погода в Заполье

Россия / Псковская область     58°22′22″N   29°41′16″E
темп.,
°C
ветер,
м/с
пор.,
м/с
влажн.,
%
обл.,
%
осадки,
мм/ч
давл.,
гПа
погр.,
м
7 марта, вс
вс700:00−1зюз81691100 1.1 9971080
03:000зюз71597100 2.6 9931232
06:00−3зсз51464100 1.8 9921596
09:00−5з4116287 1.8 9931301
12:00−3зсз6116467 0.1 9931860
15:00−4зсз597183 0.4 9931213
18:00−4зсз3875100 0.6 994818
21:00−8зсз389153 0.6 995254
8 марта, пн
пн800:00−8сз4128338 0.0 997485
03:00−8ссз4109049 0.0 1001694
06:00−9ссз51086100 0.1 1003771
09:00−9с51086100 0.1 1007791
12:00−7с4877100 0.1 1010791
15:00−6ссз476996 0.1 1012928
18:00−7ссз377562 0.0 1014791
21:00−10ссз389247 0.0 1016346
9 марта, вт
вт900:00−12ссз24965 0.0 1017137
03:00−13ссз239616 0.0 101886
06:00−14ссз12956 0.0 101951
09:00−13с018644 0.0 1021160
12:00−9юв1170100 0.0 1020447
15:00−8юв2266100 0.0 1020615
18:00−9вюв4792100 0.6 1019480
21:00−10в51093100 3.6 1019445
10 марта, ср
ср1000:00−11в51193100 3.1 1020502
03:00−11в51092100 4.1 1020534
06:00−13всв41092100 0.1 1021428
09:00−14всв4989100 0.2 1023387
12:00−11в498191 0.0 1024448
15:00−8в597196 0.0 1024700
18:00−9в4106992 0.0 1024654
21:00−11в4118270 0.0 1025416
11 марта, чт
чт1100:00−13в411865 0.0 1025359
03:00−14в39875 0.0 1024318
06:00−15в398843 0.0 1023306
09:00−13вюв499046 0.0 1022375
12:00−8юв4786100 0.1 1020514
15:00−5ююв4785100 0.1 1017640
18:00−3ююв4992100 0.1 1014588
21:00−4ююв51289100 0.3 1011567